Regional Weather Roundup
Issued by NWS

Home | Current Version | Previous Version | Graphics & Text | Print | Product List | Glossary On
Versions: 1 2 3 4 5 6 7 8 9 10 11 12 13 14 15 16 17 18 19 20 21 22 23 24 25 26 27 28 29 30 31 32 33 34 35 36 37 38 39 40 41 42 43 44 45 46 47 48 49 50
807
ASUS43 KMPX 082310
RWRMN
WEATHER ROUNDUP FOR MINNESOTA
NATIONAL WEATHER SERVICE TWIN CITIES/CHANHASSEN MN
500 PM CST THU DEC 08 2016


NOTE: "FAIR" INDICATES FEW OR NO CLOUDS BELOW 12,000 FEET WITH NO
SIGNIFICANT WEATHER AND/OR OBSTRUCTIONS TO VISIBILITY. N/A MEANS
CURRENT SKY AND/OR WEATHER CONDITIONS ARE NOT AVAILABLE.

MNZ060>063-068>070-090000-
   Twin Cities Metro

CITY           SKY/WX    TMP DP  RH WIND       PRES   REMARKS
TWIN CITIES    FLURRIES  21  11  65 NW14      30.46R WCI   8
ST PAUL        CLOUDY    22  13  68 W14       30.46R WCI   9
CRYSTAL        CLOUDY    21   9  59 NW13      30.45R WCI   9
BLAINE         CLOUDY    23  16  74 W14       30.43R WCI  11
LAKEVILLE      LGT SNOW  19  16  86 NW10      30.45R WCI   8
EDEN PRAIRIE   LGT SNOW  21  15  78 NW9       30.45R WCI  11
SOUTH ST PAUL  CLOUDY    23  13  66 NW12      30.45R WCI  11
LAKE ELMO      CLOUDY    23  16  74 NW12      30.44R WCI  12
$$
MNZ001>005-007-008-013>017-022>024-027-028-090000-
   Northwest Minnesota

CITY           SKY/WX    TMP DP  RH WIND       PRES   REMARKS
BEMIDJI        CLEAR     13   9  86 NW9       30.45R WCI   0
HALLOCK        PTCLDY    10   5  79 N14       30.57R WCI  -5
ROSEAU         CLOUDY    14   9  79 NW10      30.50R WCI   1
WARROAD        CLOUDY    16  10  79 NW10      30.48S WCI   3
THIEF RVR FALL FLURRIES  12   9  87 NW16      30.53R WCI  -5
CROOKSTON      CLOUDY    12  10  92 N16       30.57S WCI  -4
FOSSTON        FLURRIES  10   9  92 NW7       30.51R WCI   0
DETROIT LAKES  LGT SNOW  12  10  92 NW10      30.51R WCI  -1
MOORHEAD       MIX PCPN  12   9  85 NW14      30.58R WCI  -3
PARK RAPIDS    LGT SNOW  13   6  74 NW9       30.45R WCI   1
$$
MNZ006-009>011-018-025>026-090000-
   North Central Minnesota

CITY           SKY/WX    TMP DP  RH WIND       PRES   REMARKS
BAUDETTE       CLOUDY    17   9  70 NW13G21   30.43S WCI   4
FLAG ISLAND    CLOUDY    16  10  79 NW20      30.46S WCI  -1
INTL FALLS     CLOUDY    16   9  74 NW13G22   30.40R WCI   2
WASKISH        CLOUDY    16  10  79 NW12      30.45R WCI   3
BIG FORK       MOCLDY    18  10  73 NW9       30.40R WCI   6
LONGVILLE      CLOUDY    19  12  73 NW6       30.42R WCI  11
GRAND RAPIDS   MOCLDY    18  11  74 NW15      30.41R WCI   4
CRANE LAKE     MOCLDY    16  10  79 N5        30.39R WCI   9
ORR            MOCLDY    16  10  79 NW9       30.34R WCI   4
COOK           FLURRIES  16  12  86 NW7       30.36R WCI   6
$$
MNZ012-019>021-037-090000-
   Northeast Minnesota

CITY           SKY/WX    TMP DP  RH WIND       PRES   REMARKS
DULUTH         MOCLDY    20  11  68 NW14      30.32R WCI   7
ELY            PTCLDY    16  10  79 NW7       30.31S WCI   6
HIBBING        CLOUDY    17  10  74 NW15      30.36R WCI   2
EVELETH        PTCLDY    20  11  68 NW10G20   30.35R WCI   9
DULUTH HARBOR  CLOUDY    27  16  63 NW14      30.39R WCI  15
TWO HARBORS    MOCLDY    25  16  68 NW3       30.31R
SILVER BAY     CLOUDY    21  14  73 NW8       30.30R WCI  12
GRAND MARAIS     N/A     21  11  65 VRB5      30.32R WCI  15
G MARAIS ARPRT MOCLDY    12   7  79 NW9       30.23R WCI   0
$$
MNZ029>031-032-039>041-046>048-054>057-064-090000-
   West Central Minnesota

CITY           SKY/WX    TMP DP  RH WIND       PRES   REMARKS
FERGUS FALLS   LGT SNOW  12   9  85 NW16      30.59R WCI  -4
WHEATON        MOCLDY    12   9  85 NW14      30.60R WCI  -3
MORRIS         LGT SNOW  12   9  85 NW16      30.53S WCI  -4
ALEXANDRIA     CLOUDY    14   8  77 NW14G23   30.48R WCI  -1
ELBOW LAKE     LGT SNOW  11   8  89 NW18      30.54R WCI  -7
WADENA         FLURRIES  12   9  85 NW13      30.47R WCI  -3
GLENWOOD       FLURRIES  12   9  85 W13       30.50R WCI  -3
APPLETON       MOCLDY    14   9  79 NW12      30.56R WCI   0
BENSON         FLURRIES  12   9  85 N16       30.54R WCI  -4
ORTONVILLE     CLOUDY    12   7  79 NW13      30.56S WCI  -3
MADISON        PTCLDY    16  10  79 NW10      30.57R WCI   3
WILLMAR        FLURRIES  16  10  79 NW15G21   30.52S WCI   1
$$
MNZ033>034-036-042>043-049>051-058-059-090000-
   Central Minnesota

CITY           SKY/WX    TMP DP  RH WIND       PRES   REMARKS
ST CLOUD       FLURRIES  19  11  70 NW13      30.46R WCI   6
PAYNESVILLE    FLURRIES  16  11  82 W12G18    30.49R WCI   3
AITKIN         FLURRIES  21  14  73 W6        30.40R WCI  14
PINE RIVER     LGT SNOW  18  14  86 W6        30.46R WCI   9
BRAINERD       CLOUDY    19  12  74 NW13      30.43R WCI   6
STAPLES        CLOUDY    12   9  85 W10       30.46R WCI  -1
LONG PRAIRIE   CLOUDY    16  10  79 W12G18    30.47R WCI   3
LITTLE FALLS   PTCLDY    18  10  73 W9        30.46R WCI   6
LITCHFIELD     FLURRIES  18  10  73 NW13G20   30.48S WCI   4
BUFFALO        FLURRIES  20  11  67 NW10      30.48R WCI   9
MAPLE LAKE     CLOUDY    20  13  72 NW13G18   30.48R WCI   8
HUTCHINSON     FLURRIES  18  11  74 W16G22    30.50R WCI   3
$$
MNZ037-044-045-052-053-090000-
   East Central Minnesota

CITY           SKY/WX    TMP DP  RH WIND       PRES   REMARKS
PRINCETON      CLOUDY    21  12  68 W10G16    30.44R WCI  10
MORA           FLURRIES  21  14  73 NW7       30.43R WCI  13
CAMBRIDGE      CLOUDY    25  12  58 W9        30.41R WCI  15
RUSH CITY      CLOUDY    23  12  63 NW9G17    30.42R WCI  13
MOOSE LAKE     MOCLDY    23  14  68 NW6       30.37R WCI  16
HINCKLEY       FLURRIES  23  16  74 NW8       30.40S WCI  14
CLOQUET        CLEAR     19  10  68 W9        30.34R WCI   9
MCGREGOR       MOCLDY    23  14  68 NW9       30.40R WCI  13
$$
MNZ071>073-080-081-089-090-097-098-090000-
   Southwest Minnesota

CITY           SKY/WX    TMP DP  RH WIND       PRES   REMARKS
MONTEVIDEO     CLOUDY    12   7  79 N13G20    30.56S WCI  -3
GRANITE FALLS  PTCLDY    16  10  79 NW15      30.56R WCI   1
CANBY          CLEAR     16   9  75 W10G17    30.57R WCI   3
MARSHALL       FLURRIES  15   9  76 NW15      30.54R WCI   0
REDWOOD FALLS  CLOUDY    15   8  73 NW12      30.53R WCI   2
OLIVIA         PTCLDY    16  10  79 NW14G22   30.51S WCI   1
PIPESTONE      CLEAR     16   7  67 NW13G21   30.52R WCI   2
WINDOM         CLOUDY    18   9  68 NW18      30.50R WCI   2
WORTHINGTON    CLEAR     14   9  80 NW15      30.52R WCI  -1
JACKSON        PTCLDY    18   9  68 NW15      30.50R WCI   3
TRACY          CLEAR     16  10  77 NW16      30.53R WCI   1
SLAYTON        CLEAR     15   8  76 NW18      30.51R WCI  -2
$$
MNZ065>067-074>077-082>085-091>093-090000-
   South Central Minnesota

CITY           SKY/WX    TMP DP  RH WIND       PRES   REMARKS
MANKATO        FLURRIES  17  11  77 NW20G26   30.49R WCI   1
NEW ULM        MOCLDY    16   9  73 NW18G25   30.51R WCI  -1
ST JAMES       MOCLDY    18  10  73 NW18G26   30.52R WCI   2
GLENCOE        CLOUDY    19  14  79 W16       30.48R WCI   5
OWATONNA       FLURRIES  19  12  73 W16       30.45R WCI   5
WASECA         FLURRIES  18  12  79 W18       30.48R WCI   2
ALBERT LEA     FLURRIES  21  14  73 NW13G24   30.46R WCI   9
$$
MNZ078>079-086>088-094>096-090000-
   Southeast Minnesota

CITY           SKY/WX    TMP DP  RH WIND       PRES   REMARKS
ROCHESTER      CLOUDY    20  15  81 NW14      30.40R WCI   7
RED WING       FLURRIES  23  14  68 W13       30.42R WCI  11
STANTON        LGT SNOW  22  18  83 NW10      30.43S WCI  11
DODGE CENTER   FLURRIES  18  16  93 W15       30.42R WCI   3
WINONA         CLOUDY    27  18  69 NW10G18   30.42R WCI  17
AUSTIN         FLURRIES  18  12  79 NW15G21   30.44R WCI   3
PRESTON        CLOUDY    19  14  81 NW16      30.40R WCI   4
$$
ABBREVIATIONS USED IN REMARKS
   TC - TEMPERATURES IN CELSIUS
  WCI - WIND CHILL INDEX
   HX - HEAT INDEX
  VSB - VISIBILITY
$$




USA.gov is the U.S. government's official web portal to all federal, state and local government web resources and services.